User: anonymous   Login
Location: Unspecified
(0.0000°N, 0.0000°E)
Time: 12:23:04
(UTC+00:00)
Language:

Kosmos-2180 - Orbit

View from above orbital plane
View from above orbital plane
View from above satellite
View from above satellite

Ground track
Ground track

The orbit data is extracted from the following two-line orbital elements,

1 21875U 92008A   18347.82116417 +.00000040 +00000-0 +26646-4 0  9997
2 21875 082.9278 093.4275 0038428 044.9331 068.3036 13.73735088344282
Epoch (UTC): 13 December 2018 19:42:28
Eccentricity: 0.0038428
inclination: 82.9278°
perigee height: 958 km
apogee height: 1014 km
right ascension of ascending node: 93.4275°
argument of perigee: 44.9331°
revolutions per day: 13.73735088
mean anomaly at epoch: 68.3036°
orbit number at epoch: 34428

The dashed part of the orbit path shows where the satellite is in the earth's shadow,  

DLR